EW4956 Weather Reports


time (UTC)temp
C
wind
direction
speed
KPH
gust
KPH
rain 1hr
cm
rain 24hr
cm
rain mn
cm
humidity
%
barometer
mb
20260508191551 19 150 0.0 12.9 0.00 0.00 0.00 30 1009.0
20260508190050 18 157 0.0 3.2 0.00 0.00 0.00 29 1009.2
20260508184548 18 145 0.0 17.7 0.00 0.00 0.00 29 1009.4
20260508183045 18 171 0.0 4.8 0.00 0.00 0.00 30 1009.4
20260508181554 18 171 0.0 3.2 0.00 0.00 0.00 33 1009.5
20260508180042 18 159 0.0 12.9 0.00 0.00 0.00 33 1009.8
20260508174551 18 169 0.0 9.7 0.00 0.00 0.00 32 1009.9
20260508173043 18 180 0.0 8.0 0.00 0.00 0.00 30 1009.8
20260508171536 17 160 0.0 8.0 0.00 0.00 0.00 31 1009.7
20260508170031 17 146 0.0 8.0 0.00 0.00 0.00 31 1009.8
20260508164527 17 159 0.0 4.8 0.00 0.00 0.00 34 1009.7
20260508163024 17 161 0.0 14.5 0.00 0.00 0.00 32 1009.6
20260508161520 17 159 0.0 1.6 0.00 0.00 0.00 31 1009.6
20260508160016 17 186 0.0 1.6 0.00 0.00 0.00 31 1009.4
20260508154514 17 196 0.0 0.0 0.00 0.00 0.00 30 1009.6
20260508153014 16 197 0.0 3.2 0.00 0.00 0.00 31 1009.5
20260508151508 16 197 0.0 0.0 0.00 0.00 0.00 30 1009.6
20260508150005 16 197 0.0 0.0 0.00 0.00 0.00 33 1009.5
20260508144501 16 197 0.0 3.2 0.00 0.00 0.00 31 1009.5
20260508143103 15 197 0.0 0.0 0.00 0.00 0.00 31 1009.5
20260508141615 15 197 0.0 0.0 0.00 0.00 0.00 37 1009.5
20260508140050 13 197 0.0 0.0 0.00 0.00 0.00 37 1009.5
20260508134556 12 197 0.0 0.0 0.00 0.00 0.00 41 1009.3
20260508133043 12 197 0.0 0.0 0.00 0.00 0.00 44 1009.3
20260508131539 11 197 0.0 0.0 0.00 0.00 0.00 42 1009.3
20260508130036 11 197 0.0 0.0 0.00 0.00 0.00 43 1009.2
20260508124535 10 197 0.0 0.0 0.00 0.00 0.00 43 1009.1
20260508123042 10 197 0.0 0.0 0.00 0.00 0.00 44 1009.0
20260508121532 10 197 0.0 0.0 0.00 0.00 0.00 42 1008.9
20260508120026 10 197 0.0 0.0 0.00 0.00 0.00 43 1008.8
20260508114525 10 197 0.0 0.0 0.00 0.00 0.00 44 1008.7
20260508113039 10 197 0.0 3.2 0.00 0.00 0.00 44 1008.8
20260508111523 11 197 0.0 0.0 0.00 0.00 0.00 44 1008.6
20260508110023 11 197 0.0 0.0 0.00 0.00 0.00 43 1008.7
20260508104522 11 197 0.0 0.0 0.00 0.00 0.00 45 1008.6
20260508103026 11 197 0.0 0.0 0.00 0.00 0.00 46 1008.4
20260508101528 11 197 0.0 0.0 0.00 0.00 0.00 47 1008.5
20260508100019 11 197 0.0 0.0 0.00 0.00 0.00 48 1008.5
20260508094519 10 197 0.0 0.0 0.00 0.00 0.00 48 1008.4
20260508093018 11 197 0.0 0.0 0.00 0.00 0.00 49 1008.3
20260508091525 11 197 0.0 0.0 0.00 0.00 0.00 48 1008.4
20260508090022 11 197 0.0 0.0 0.00 0.00 0.00 47 1008.5
20260508084511 11 197 0.0 0.0 0.00 0.00 0.00 45 1008.6
20260508083010 12 197 0.0 0.0 0.00 0.00 0.00 44 1008.7
20260508081510 12 197 0.0 0.0 0.00 0.00 0.00 44 1008.7
20260508080007 12 195 0.0 0.0 0.00 0.00 0.00 43 1008.9
20260508074506 12 195 0.0 0.0 0.00 0.00 0.00 44 1008.9
20260508073005 12 194 0.0 0.0 0.00 0.00 0.00 44 1008.9
20260508071511 12 194 0.0 0.0 0.00 0.00 0.00 44 1009.0
20260508070003 11 194 0.0 0.0 0.00 0.00 0.00 44 1009.1
20260508064502 11 194 0.0 0.0 0.00 0.00 0.00 45 1009.1
20260508063100 11 194 0.0 0.0 0.00 0.00 0.00 45 1009.2
20260508061603 12 194 0.0 0.0 0.00 0.00 0.00 43 1009.1
20260508060057 12 194 0.0 0.0 0.00 0.00 0.00 44 1008.9
20260508054556 12 194 0.0 0.0 0.00 0.00 0.00 43 1009.0
20260508053056 12 194 0.0 0.0 0.00 0.00 0.00 41 1008.8
20260508051555 12 194 0.0 0.0 0.00 0.00 0.00 41 1008.8
20260508050054 13 194 0.0 0.0 0.00 0.00 0.00 41 1008.9
20260508044554 13 194 0.0 0.0 0.00 0.00 0.00 40 1008.9
20260508043106 13 193 0.0 0.0 0.00 0.00 0.00 39 1009.0
20260508041553 13 188 0.0 0.0 0.00 0.00 0.00 40 1009.0
20260508040052 13 188 0.0 0.0 0.00 0.00 0.00 40 1009.2
20260508034552 14 188 0.0 0.0 0.00 0.00 0.00 39 1009.0
20260508033051 14 188 0.0 0.0 0.00 0.00 0.00 38 1008.8
20260508031551 13 184 0.0 0.0 0.00 0.00 0.00 39 1008.9
20260508030050 15 175 0.0 0.0 0.00 0.00 0.00 36 1008.7
20260508024552 15 175 0.0 0.0 0.00 0.00 0.00 34 1008.6
20260508023049 16 175 0.0 0.0 0.00 0.00 0.00 33 1008.6
20260508021552 17 175 0.0 0.0 0.00 0.00 0.00 31 1008.5
20260508020047 17 175 0.0 1.6 0.00 0.00 0.00 30 1008.5
20260508014547 17 175 0.0 3.2 0.00 0.00 0.00 30 1008.4
20260508013046 17 175 0.0 0.0 0.00 0.00 0.00 30 1008.6
20260508011545 18 178 0.0 0.0 0.00 0.00 0.00 29 1008.6
20260508010044 18 178 0.0 1.6 0.00 0.00 0.00 28 1008.8
20260508004545 18 175 0.0 3.2 0.00 0.00 0.00 28 1008.7
20260508003040 19 175 0.0 1.6 0.00 0.00 0.00 28 1009.0
20260508001540 19 167 0.0 8.0 0.00 0.00 0.00 28 1009.2
20260508000037 18 163 0.0 4.8 0.00 0.00 0.00 28 1009.3
20260507234537 18 169 0.0 4.8 0.00 0.00 0.00 29 1009.4
20260507233038 19 180 0.0 4.8 0.00 0.00 0.00 28 1009.6
20260507231533 18 182 0.0 1.6 0.00 0.00 0.00 29 1009.9
20260507230029 19 190 0.0 1.6 0.00 0.00 0.00 28 1010.3
20260507224531 18 193 0.0 0.0 0.00 0.00 0.00 30 1010.7
20260507223026 19 184 0.0 1.6 0.00 0.00 0.00 29 1010.8
20260507221524 18 161 0.0 3.2 0.00 0.00 0.00 29 1010.9
20260507220024 19 198 0.0 8.0 0.00 0.00 0.00 30 1011.0
20260507214526 18 180 0.0 8.0 0.00 0.00 0.00 29 1011.3
20260507213020 18 168 0.0 4.8 0.00 0.00 0.00 28 1011.3
20260507211518 18 171 0.0 3.2 0.00 0.00 0.00 28 1011.6
20260507210032 18 170 0.0 9.7 0.00 0.00 0.00 27 1011.9
20260507204515 18 169 0.0 11.3 0.00 0.00 0.00 28 1012.1
20260507203013 18 160 0.0 3.2 0.00 0.00 0.00 27 1012.1
20260507201512 18 178 0.0 4.8 0.00 0.00 0.00 25 1012.4
20260507200010 18 161 0.0 4.8 0.00 0.00 0.00 25 1012.5
20260507194509 19 174 0.0 1.6 0.00 0.00 0.00 26 1012.6
20260507193007 17 183 0.0 1.6 0.00 0.00 0.00 26 1012.8